TimeCDT,TemperatureF,Dew PointF,Humidity,Sea Level PressureIn,VisibilityMPH,Wind Direction,Wind SpeedMPH,Gust SpeedMPH,PrecipitationIn,Events,Conditions,WindDirDegrees,DateUTC
12:53 AM,69.1,41.0,36,30.11,10.0,South,15.0,-,N/A,,Clear,180,2011-10-04 05:53:00
1:53 AM,66.9,39.9,37,30.11,10.0,South,15.0,-,N/A,,Clear,170,2011-10-04 06:53:00
2:53 AM,64.9,39.9,40,30.10,10.0,South,11.5,-,N/A,,Clear,180,2011-10-04 07:53:00
3:53 AM,64.0,39.9,41,30.09,10.0,South,10.4,-,N/A,,Clear,190,2011-10-04 08:53:00
4:53 AM,61.0,39.9,46,30.10,10.0,South,8.1,-,N/A,,Clear,190,2011-10-04 09:53:00
6:53 AM,55.9,39.9,55,30.12,10.0,South,8.1,-,N/A,,Clear,180,2011-10-04 11:53:00
7:53 AM,57.9,41.0,53,30.14,10.0,South,8.1,-,N/A,,Clear,180,2011-10-04 12:53:00
8:53 AM,64.9,42.1,43,30.15,10.0,South,10.4,-,N/A,,Clear,180,2011-10-04 13:53:00
9:53 AM,70.0,42.1,36,30.17,10.0,South,12.7,-,N/A,,Clear,170,2011-10-04 14:53:00
10:53 AM,73.9,42.1,32,30.17,10.0,South,12.7,-,N/A,,Clear,180,2011-10-04 15:53:00
11:53 AM,79.0,42.1,27,30.15,10.0,South,10.4,-,N/A,,Clear,170,2011-10-04 16:53:00
12:53 PM,81.0,42.1,25,30.14,10.0,South,10.4,-,N/A,,Clear,180,2011-10-04 17:53:00
1:53 PM,84.0,42.1,23,30.11,10.0,South,12.7,20.7,N/A,,Clear,180,2011-10-04 18:53:00
2:53 PM,84.9,41.0,21,30.08,10.0,South,9.2,23.0,N/A,,Clear,180,2011-10-04 19:53:00
3:53 PM,86.0,37.9,18,30.06,10.0,South,13.8,23.0,N/A,,Clear,190,2011-10-04 20:53:00
5:53 PM,84.0,37.9,19,30.04,10.0,SSE,16.1,-,N/A,,Clear,160,2011-10-04 22:53:00
6:53 PM,80.1,37.9,22,30.05,10.0,SSE,13.8,-,N/A,,Clear,160,2011-10-04 23:53:00
7:53 PM,75.0,37.9,26,30.06,10.0,SSE,9.2,-,N/A,,Clear,150,2011-10-05 00:53:00
8:53 PM,73.0,37.9,28,30.06,10.0,SSE,10.4,-,N/A,,Clear,150,2011-10-05 01:53:00
9:53 PM,70.0,37.9,31,30.07,10.0,SE,10.4,-,N/A,,Clear,140,2011-10-05 02:53:00
11:53 PM,66.9,39.0,36,30.07,10.0,SSE,15.0,-,N/A,,Clear,160,2011-10-05 04:53:00